Hourly Weather Cerrito

Today, 14 June, Monday

Time Temperature Precipitation Wind Pressure Humidity
00:00 +11°C° 0.2 mm 1 mps 540 mmHg 93%
01:00 +11°C° 0 mm 1 mps 540 mmHg 94%
02:00 +11°C° 0.1 mm 1 mps 540 mmHg 94%
03:00 +10°C° 0.1 mm 1 mps 540 mmHg 94%
04:00 +10°C° 0.1 mm 1 mps 540 mmHg 94%
05:00 +11°C° 0 mm 1 mps 540 mmHg 93%
06:00 +11°C° 0 mm 1 mps 541 mmHg 92%
07:00 +11°C° 0 mm 1 mps 541 mmHg 91%
08:00 +12°C° 0.2 mm 1 mps 541 mmHg 89%
09:00 +13°C° 0.2 mm 1 mps 542 mmHg 86%
10:00 +14°C° 0.2 mm 1 mps 542 mmHg 83%
11:00 +14°C° 0.6 mm 1 mps 542 mmHg 82%
12:00 +14°C° 0.6 mm 1 mps 542 mmHg 81%
13:00 +14°C° 0.6 mm 1 mps 542 mmHg 80%
14:00 +14°C° 0.7 mm 1 mps 541 mmHg 81%
15:00 +14°C° 0.7 mm 1 mps 541 mmHg 83%
16:00 +13°C° 0.7 mm 1 mps 540 mmHg 84%
17:00 +12°C° 0.4 mm 1 mps 540 mmHg 87%
18:00 +11°C° 0.4 mm 1 mps 540 mmHg 89%
19:00 +10°C° 0.4 mm 2 mps 540 mmHg 92%
20:00 +9°C° 0.1 mm 2 mps 540 mmHg 91%
21:00 +8°C° 0.1 mm 2 mps 540 mmHg 91%
22:00 +8°C° 0.1 mm 2 mps 541 mmHg 90%
23:00 +8°C° 0 mm 2 mps 540 mmHg 88%

Tomorrow, 15 June, Tuesday

Time Temperature Precipitation Wind Pressure Humidity
00:00 +7°C° 0 mm 2 mps 540 mmHg 86%
01:00 +7°C° 0 mm 2 mps 539 mmHg 84%
02:00 +7°C° 0 mm 2 mps 539 mmHg 80%
03:00 +7°C° 0 mm 2 mps 539 mmHg 75%
04:00 +7°C° 0 mm 2 mps 539 mmHg 71%
05:00 +7°C° 0 mm 2 mps 540 mmHg 67%
06:00 +8°C° 0 mm 2 mps 540 mmHg 63%
07:00 +9°C° 0 mm 2 mps 541 mmHg 60%
08:00 +12°C° 0 mm 2 mps 542 mmHg 59%
09:00 +14°C° 0 mm 2 mps 543 mmHg 58%
10:00 +16°C° 0 mm 2 mps 543 mmHg 58%
11:00 +16°C° 0.2 mm 2 mps 543 mmHg 60%
12:00 +16°C° 0.2 mm 2 mps 543 mmHg 63%
13:00 +16°C° 0.2 mm 2 mps 542 mmHg 65%
14:00 +16°C° 0.6 mm 2 mps 542 mmHg 70%
15:00 +15°C° 0.6 mm 2 mps 541 mmHg 75%
16:00 +14°C° 0.6 mm 1 mps 541 mmHg 80%
17:00 +13°C° 0.6 mm 2 mps 541 mmHg 84%
18:00 +12°C° 0.6 mm 2 mps 541 mmHg 87%
19:00 +10°C° 0.6 mm 2 mps 540 mmHg 91%
20:00 +9°C° 0.2 mm 2 mps 540 mmHg 91%
21:00 +9°C° 0.2 mm 2 mps 540 mmHg 91%
22:00 +9°C° 0.2 mm 2 mps 541 mmHg 91%
23:00 +9°C° 0.6 mm 2 mps 540 mmHg 92%

Day after tomorrow, 16 June, Wednesday

Time Temperature Precipitation Wind Pressure Humidity
00:00 +9°C° 0.6 mm 2 mps 540 mmHg 93%
01:00 +9°C° 0.6 mm 2 mps 539 mmHg 93%
02:00 +9°C° 0.5 mm 2 mps 539 mmHg 93%
03:00 +10°C° 0.5 mm 1 mps 539 mmHg 94%
04:00 +10°C° 0.5 mm 1 mps 539 mmHg 94%
05:00 +10°C° 0.3 mm 1 mps 540 mmHg 93%
06:00 +10°C° 0.3 mm 1 mps 540 mmHg 93%
07:00 +11°C° 0.3 mm 1 mps 540 mmHg 92%
08:00 +10°C° 0.2 mm 2 mps 541 mmHg 90%
09:00 +12°C° 0.2 mm 2 mps 541 mmHg 88%
10:00 +12°C° 0.2 mm 2 mps 541 mmHg 85%
11:00 +13°C° 0.2 mm 2 mps 541 mmHg 82%
12:00 +14°C° 0.2 mm 2 mps 541 mmHg 78%
13:00 +14°C° 0.2 mm 2 mps 541 mmHg 75%
14:00 +14°C° 0.5 mm 2 mps 541 mmHg 79%
15:00 +13°C° 0.5 mm 2 mps 540 mmHg 83%
16:00 +12°C° 0.5 mm 2 mps 540 mmHg 87%
17:00 +10°C° 0.4 mm 2 mps 540 mmHg 89%
18:00 +10°C° 0.4 mm 2 mps 540 mmHg 90%
19:00 +9°C° 0.4 mm 2 mps 540 mmHg 92%
20:00 +10°C° 0.1 mm 1 mps 540 mmHg 90%
21:00 +10°C° 0.1 mm 1 mps 540 mmHg 88%
22:00 +10°C° 0.1 mm 1 mps 541 mmHg 87%
23:00 +10°C° 0 mm 1 mps 540 mmHg 86%

17 June, Thursday

Time Temperature Precipitation Wind Pressure Humidity
00:00 +10°C° 0 mm 1 mps 540 mmHg 86%
01:00 +10°C° 0 mm 1 mps 539 mmHg 86%
02:00 +9°C° 0 mm 1 mps 539 mmHg 86%
03:00 +9°C° 0 mm 1 mps 539 mmHg 86%
04:00 +9°C° 0 mm 1 mps 539 mmHg 87%
05:00 +9°C° 0 mm 1 mps 539 mmHg 85%
06:00 +10°C° 0 mm 1 mps 540 mmHg 83%
07:00 +11°C° 0 mm 1 mps 541 mmHg 81%
08:00 +13°C° 0 mm 1 mps 541 mmHg 76%
09:00 +14°C° 0 mm 1 mps 542 mmHg 71%
10:00 +15°C° 0 mm 2 mps 543 mmHg 67%
11:00 +15°C° 0.4 mm 1 mps 542 mmHg 71%
12:00 +15°C° 0.4 mm 1 mps 542 mmHg 76%
13:00 +15°C° 0.4 mm 1 mps 541 mmHg 80%
14:00 +14°C° 0.8 mm 1 mps 541 mmHg 83%
15:00 +14°C° 0.8 mm 1 mps 540 mmHg 86%
16:00 +13°C° 0.8 mm 1 mps 540 mmHg 89%
17:00 +13°C° 0.6 mm 1 mps 540 mmHg 90%
18:00 +12°C° 0.6 mm 1 mps 540 mmHg 92%
19:00 +11°C° 0.6 mm 1 mps 540 mmHg 94%
20:00 +11°C° 0.3 mm 1 mps 540 mmHg 93%
21:00 +11°C° 0.3 mm 1 mps 540 mmHg 92%
22:00 +9°C° 0.3 mm 2 mps 541 mmHg 92%
23:00 +10°C° 0.1 mm 1 mps 540 mmHg 92%

18 June, Friday

Time Temperature Precipitation Wind Pressure Humidity
00:00 +10°C° 0.1 mm 1 mps 540 mmHg 92%
01:00 +10°C° 0.1 mm 1 mps 540 mmHg 92%
02:00 +10°C° 0 mm 1 mps 540 mmHg 91%
03:00 +10°C° 0 mm 1 mps 539 mmHg 90%
04:00 +9°C° 0 mm 1 mps 539 mmHg 89%
05:00 +10°C° 0 mm 1 mps 540 mmHg 87%
06:00 +11°C° 0 mm 1 mps 541 mmHg 84%
07:00 +12°C° 0 mm 1 mps 541 mmHg 81%
08:00 +13°C° 0.2 mm 1 mps 542 mmHg 79%
09:00 +14°C° 0.2 mm 1 mps 542 mmHg 76%
10:00 +15°C° 0.2 mm 2 mps 543 mmHg 73%
11:00 +15°C° 0.7 mm 2 mps 542 mmHg 75%
12:00 +15°C° 0.7 mm 1 mps 542 mmHg 78%
13:00 +15°C° 0.7 mm 1 mps 542 mmHg 81%
14:00 +14°C° 1 mm 1 mps 541 mmHg 83%
15:00 +14°C° 1 mm 1 mps 541 mmHg 86%
16:00 +14°C° 1 mm 2 mps 540 mmHg 88%
17:00 +13°C° 1.8 mm 2 mps 540 mmHg 90%
18:00 +12°C° 1.8 mm 2 mps 540 mmHg 92%
19:00 +10°C° 1.8 mm 2 mps 540 mmHg 94%
20:00 +10°C° 0.1 mm 2 mps 541 mmHg 94%
21:00 +10°C° 0.1 mm 2 mps 541 mmHg 94%
22:00 +10°C° 0.1 mm 2 mps 541 mmHg 94%
23:00 +10°C° 0.1 mm 2 mps 541 mmHg 94%

19 June, Saturday

Time Temperature Precipitation Wind Pressure Humidity
00:00 +10°C° 0.1 mm 2 mps 541 mmHg 93%
01:00 +9°C° 0.1 mm 2 mps 540 mmHg 92%
02:00 +9°C° 0 mm 2 mps 540 mmHg 92%
03:00 +8°C° 0 mm 2 mps 540 mmHg 92%
04:00 +8°C° 0 mm 3 mps 540 mmHg 92%
05:00 +9°C° 0 mm 2 mps 540 mmHg 91%
06:00 +9°C° 0 mm 2 mps 541 mmHg 90%
07:00 +10°C° 0 mm 2 mps 541 mmHg 88%
08:00 +12°C° 0.1 mm 2 mps 542 mmHg 84%
09:00 +13°C° 0.1 mm 2 mps 542 mmHg 80%
10:00 +14°C° 0.1 mm 2 mps 543 mmHg 76%
11:00 +15°C° 0.3 mm 2 mps 543 mmHg 76%
12:00 +15°C° 0.3 mm 2 mps 542 mmHg 76%
13:00 +15°C° 0.3 mm 2 mps 542 mmHg 75%
14:00 +15°C° 0.5 mm 2 mps 542 mmHg 79%
15:00 +14°C° 0.5 mm 2 mps 541 mmHg 83%
16:00 +14°C° 0.5 mm 2 mps 540 mmHg 87%
17:00 +13°C° 0.5 mm 2 mps 541 mmHg 89%
18:00 +12°C° 0.5 mm 2 mps 541 mmHg 90%
19:00 +10°C° 0.5 mm 2 mps 541 mmHg 91%
20:00 +10°C° 0.2 mm 2 mps 541 mmHg 91%
21:00 +9°C° 0.2 mm 2 mps 541 mmHg 91%
22:00 +9°C° 0.2 mm 2 mps 541 mmHg 91%
23:00 +9°C° 0 mm 2 mps 541 mmHg 91%
Show more

We Need Your Consent

Meteoprog and our Service Providers may store and access personal data such as cookies, device identifiers or other similar technologies on your device and process such data to personalise content and ads, as well as provide social media features and to analyse the traffic.

  • Store and/or access information on your device

    Cookies, device identifiers or other information can be stored or accessed on your device for the purposes indicated above.

  • Personalised ads and content, ad and content measurement, audience insights, and products development

    Ads and content can be personalised based on a profile. More data can be added to better personalise ads and content. Ad and content performance can be measured. Insights about the audience who saw the ads and content can be derived. Such data can be used to develop or improve user’s experience, systems and software.

By clicking ‘I Agree’ you will allow the use of indicated cookies, device identifiers, web beacons or other similar technologies. Your settings can be changed in the browser on your device.

For certain purposes, legitimate interests may be relied on, rather than consent. You can read more about this in our Privacy and Cookie Policy.